Weather History for Big Sandy Reg AP, Prestonsbur, KY

Change the Weather History Date:

Thursday, February 27, 2014

  Actual Average Record
Temperature  
Mean Temperature 26 °F -  
Max Temperature 35 °F - - ()
Min Temperature 18 °F - - ()
Degree Days  
Heating Degree Days 38    
Moisture  
Dew Point 6 °F    
Average Humidity 44    
Maximum Humidity 56    
Minimum Humidity 31    
Precipitation  
Precipitation 0.00 in - - ()
Sea Level Pressure  
Sea Level Pressure 29.93 in    
Wind  
Wind Speed 8 mph (WNW)    
Max Wind Speed 16 mph    
Max Gust Speed 24 mph    
Visibility 10 miles    
Events      
T = Trace of Precipitation, MM = Missing Value Source: NWS Daily Summary

Daily Weather History Graph

Daily Weather History Graph

Search for Another Location

Airport:

Trip Planner

Search our weather history database for the weather conditions in past years. The results will help you decide how hot, cold, wet, or windy it might be!

Date:

Astronomy

Feb. 27, 2014 Rise Set
Actual Time 7:04 AM EST 6:22 PM EST
Civil Twilight 6:38 AM EST 6:48 PM EST
Nautical Twilight 6:08 AM EST 7:19 PM EST
Astronomical Twilight 5:37 AM EST 7:49 PM EST
Moon 5:35 AM EST (2/27) 4:47 PM EST (2/27)
Length of Visible Light 12h 10m
Length of Day
11h 17m
Waning Crescent, 4% of the Moon is Illuminated
Feb 27
Waning Crescent
Mar 1
New
Mar 8
First Quarter
Mar 16
Full
Mar 23
Last Quarter

Hourly Weather History & Observations

Time (EST) Temp. Windchill Dew Point Humidity Pressure Visibility Wind Dir Wind Speed Gust Speed Precip Events Conditions
12:15 AM 21.2 °F 12.6 °F 6.4 °F 53% 29.88 in 10.0 mi SW 6.9 mph - N/A   Clear
12:35 AM 21.2 °F 11.7 °F 6.3 °F 53% 29.88 in 10.0 mi WSW 8.1 mph - N/A   Clear
12:55 AM 21.2 °F 13.6 °F 6.3 °F 53% 29.87 in 10.0 mi WSW 5.8 mph - N/A   Clear
1:15 AM 20.5 °F 12.8 °F 6.4 °F 55% 29.88 in 10.0 mi WSW 5.8 mph - N/A   Clear
1:35 AM 20.8 °F 11.2 °F 6.4 °F 54% 29.87 in 10.0 mi WSW 8.1 mph - N/A   Clear
1:55 AM 20.5 °F 12.8 °F 6.4 °F 55% 29.87 in 10.0 mi WSW 5.8 mph - N/A   Clear
2:15 AM 20.3 °F 11.5 °F 6.6 °F 56% 29.87 in 10.0 mi WSW 6.9 mph - N/A   Clear
2:35 AM 19.9 °F 12.1 °F 6.4 °F 56% 29.87 in 10.0 mi West 5.8 mph - N/A   Clear
2:55 AM 20.1 °F 9.5 °F 6.3 °F 55% 29.87 in 10.0 mi West 9.2 mph - N/A   Clear
3:15 AM 19.8 °F 8.3 °F 6.1 °F 55% 29.87 in 10.0 mi WSW 10.4 mph - N/A   Clear
3:35 AM 19.4 °F 9.5 °F 5.9 °F 56% 29.86 in 10.0 mi WSW 8.1 mph - N/A   Clear
3:55 AM 19.4 °F 9.5 °F 5.5 °F 55% 29.86 in 10.0 mi WSW 8.1 mph - N/A   Clear
4:15 AM 19.2 °F 8.4 °F 4.8 °F 54% 29.85 in 10.0 mi WSW 9.2 mph - N/A   Clear
4:35 AM 18.9 °F 8.0 °F 4.3 °F 53% 29.85 in 10.0 mi WSW 9.2 mph - N/A   Clear
4:55 AM 18.9 °F 8.0 °F 3.9 °F 52% 29.85 in 10.0 mi WSW 9.2 mph - N/A   Clear
5:15 AM 18.5 °F 10.4 °F 3.7 °F 53% 29.85 in 10.0 mi WSW 5.8 mph - N/A   Clear
5:35 AM 18.7 °F 7.8 °F 3.7 °F 52% 29.86 in 10.0 mi WSW 9.2 mph - N/A   Clear
5:55 AM 18.9 °F 9.8 °F 3.6 °F 51% 29.85 in 10.0 mi WSW 6.9 mph - N/A   Clear
6:15 AM 18.7 °F 9.5 °F 3.9 °F 53% 29.86 in 10.0 mi WSW 6.9 mph - N/A   Clear
6:35 AM 19.2 °F 7.7 °F 3.6 °F 51% 29.86 in 10.0 mi WSW 10.4 mph 17.3 mph N/A   Clear
6:55 AM 19.0 °F 10.0 °F 3.7 °F 51% 29.86 in 10.0 mi WSW 6.9 mph - N/A   Clear
7:15 AM 18.9 °F 10.8 °F 4.1 °F 53% 29.86 in 10.0 mi SW 5.8 mph - N/A   Clear
7:35 AM 19.4 °F 7.9 °F 3.9 °F 51% 29.86 in 10.0 mi WSW 10.4 mph 17.3 mph N/A   Clear
7:55 AM 20.1 °F 12.3 °F 4.1 °F 50% 29.87 in 10.0 mi WSW 5.8 mph 17.3 mph N/A   Clear
8:15 AM 21.0 °F 11.4 °F 4.6 °F 49% 29.88 in 10.0 mi WSW 8.1 mph - N/A   Clear
8:35 AM 21.9 °F 11.7 °F 5.0 °F 48% 29.89 in 10.0 mi WSW 9.2 mph - N/A   Clear
8:55 AM 23.4 °F 11.1 °F 5.7 °F 47% 29.89 in 10.0 mi WSW 13.8 mph 20.7 mph N/A   Clear
9:15 AM 24.3 °F 14.6 °F 6.3 °F 46% 29.89 in 10.0 mi WSW 9.2 mph 18.4 mph N/A   Clear
9:35 AM 25.3 °F 13.1 °F 7.0 °F 46% 29.89 in 10.0 mi WSW 15.0 mph 21.9 mph N/A   Clear
9:55 AM 26.2 °F 14.7 °F 7.7 °F 46% 29.89 in 10.0 mi WSW 13.8 mph - N/A   Clear
10:15 AM 27.1 °F 15.9 °F 8.4 °F 45% 29.89 in 10.0 mi WSW 13.8 mph 20.7 mph N/A   Clear
10:35 AM 28.6 °F 17.7 °F 10.0 °F 46% 29.89 in 10.0 mi West 13.8 mph 19.6 mph N/A   Clear
10:55 AM 28.8 °F 18.4 °F 9.5 °F 45% 29.89 in 10.0 mi West 12.7 mph 21.9 mph N/A   Clear
11:15 AM 30.2 °F 22.6 °F 10.0 °F 43% 29.90 in 10.0 mi West 8.1 mph 20.7 mph N/A   Clear
11:30 AM 30.2 °F 19.8 °F 9.0 °F 41% 29.90 in 10.0 mi WSW 13.8 mph 21.9 mph N/A   Clear
11:55 AM 31.3 °F 22.1 °F 8.2 °F 38% 29.91 in 10.0 mi WNW 11.5 mph 20.7 mph N/A   Clear
12:15 PM 31.6 °F 20.7 °F 8.2 °F 38% 29.91 in 10.0 mi WNW 16.1 mph 21.9 mph N/A   Clear
12:35 PM 32.0 °F 23.0 °F 9.1 °F 38% 29.91 in 10.0 mi West 11.5 mph 19.6 mph N/A   Clear
12:55 PM 33.4 °F 23.9 °F 9.1 °F 36% 29.90 in 10.0 mi WSW 13.8 mph 20.7 mph N/A   Clear
1:15 PM 33.8 °F 27.0 °F 7.9 °F 34% 29.90 in 10.0 mi WNW 8.1 mph 16.1 mph N/A   Clear
1:35 PM 34.0 °F 26.0 °F 8.2 °F 34% 29.90 in 10.0 mi NW 10.4 mph 21.9 mph N/A   Clear
1:55 PM 34.5 °F 24.8 °F 8.8 °F 34% 29.90 in 10.0 mi WNW 15.0 mph 23.0 mph N/A   Clear
2:15 PM 34.5 °F 27.9 °F 8.8 °F 34% 29.90 in 10.0 mi WNW 8.1 mph 18.4 mph N/A   Clear
2:35 PM 35.1 °F 27.9 °F 9.3 °F 34% 29.91 in 10.0 mi NW 9.2 mph 24.2 mph N/A   Clear
2:55 PM 35.4 °F 28.4 °F 9.7 °F 34% 29.92 in 10.0 mi West 9.2 mph 17.3 mph N/A   Clear
3:15 PM 35.2 °F 28.1 °F 10.0 °F 35% 29.92 in 10.0 mi NNW 9.2 mph 16.1 mph N/A   Clear
3:35 PM 34.7 °F 27.5 °F 9.0 °F 34% 29.92 in 10.0 mi WNW 9.2 mph - N/A   Clear
3:55 PM 34.7 °F 28.1 °F 9.0 °F 34% 29.93 in 10.0 mi NNW 8.1 mph - N/A   Clear
4:15 PM 34.2 °F 25.7 °F 9.1 °F 35% 29.94 in 10.0 mi NW 11.5 mph 18.4 mph N/A   Clear
4:35 PM 34.7 °F 28.8 °F 9.5 °F 35% 29.95 in 10.0 mi WNW 6.9 mph - N/A   Clear
4:55 PM 33.4 °F 28.1 °F 8.6 °F 35% 29.95 in 10.0 mi North 5.8 mph 17.3 mph N/A   Clear
5:15 PM 33.4 °F 27.3 °F 8.4 °F 35% 29.95 in 10.0 mi NNW 6.9 mph 16.1 mph N/A   Clear
5:35 PM 32.9 °F 24.7 °F 7.9 °F 35% 29.96 in 10.0 mi WNW 10.4 mph 16.1 mph N/A   Clear
5:55 PM 32.0 °F 24.8 °F 7.7 °F 36% 29.97 in 10.0 mi NNW 8.1 mph - N/A   Clear
6:15 PM 31.1 °F 23.1 °F 7.3 °F 37% 29.97 in 10.0 mi NW 9.2 mph - N/A   Clear
6:35 PM 30.4 °F 22.9 °F 6.1 °F 36% 29.97 in 10.0 mi NW 8.1 mph - N/A   Clear
6:55 PM 30.2 °F 26.7 °F 6.3 °F 36% 29.98 in 10.0 mi NW 3.5 mph - N/A   Clear
7:15 PM 29.3 °F 25.6 °F 6.8 °F 39% 29.99 in 10.0 mi NNW 3.5 mph - N/A   Clear
7:35 PM 29.1 °F 25.4 °F 7.3 °F 40% 30.00 in 10.0 mi NNW 3.5 mph - N/A   Clear
7:55 PM 28.8 °F 25.0 °F 7.5 °F 41% 30.00 in 10.0 mi NNW 3.5 mph - N/A   Clear
8:15 PM 27.9 °F 20.6 °F 5.9 °F 39% 30.01 in 10.0 mi NNW 6.9 mph - N/A   Clear
8:35 PM 27.1 °F 20.7 °F -0.4 °F 31% 30.02 in 10.0 mi NNW 5.8 mph - N/A   Clear
8:55 PM 25.7 °F 20.1 °F 1.2 °F 35% 30.03 in 10.0 mi North 4.6 mph - N/A   Clear
9:15 PM 25.5 °F 19.9 °F -0.4 °F 33% 30.03 in 10.0 mi North 4.6 mph - N/A   Clear
9:35 PM 23.9 °F 15.8 °F -0.0 °F 35% 30.05 in 10.0 mi NNE 6.9 mph - N/A   Clear
9:55 PM 24.1 °F 16.0 °F -0.9 °F 34% 30.05 in 10.0 mi North 6.9 mph - N/A   Clear
10:15 PM 22.8 °F 16.7 °F -0.2 °F 37% 30.06 in 10.0 mi NNE 4.6 mph - N/A   Clear
10:35 PM 22.6 °F 16.5 °F 2.3 °F 42% 30.07 in 10.0 mi NNE 4.6 mph - N/A   Clear
10:55 PM 22.1 °F 14.7 °F 2.8 °F 43% 30.08 in 10.0 mi NNE 5.8 mph - N/A   Clear
11:15 PM 21.2 °F 11.7 °F 3.2 °F 46% 30.08 in 10.0 mi NNE 8.1 mph - N/A   Clear
11:35 PM 21.0 °F 12.4 °F 2.3 °F 44% 30.08 in 10.0 mi NNE 6.9 mph - N/A   Clear
11:55 PM 20.3 °F 15.4 °F 2.3 °F 46% 30.09 in 10.0 mi North 3.5 mph - N/A   Clear